Back to catalog

DELTA 1 DEB

AliveSSO
NORAD 12223·DEBRIS·🇺🇸 United States

Launched Mar 5, 1978 from Vandenberg Space Force Base

Loading…

Next Passes (next 24 hours)

TLE

FreshSource: Space-Track

Epoch: Sep 14, 2026, 13:04 UTC

1 12223U 78026BQ  26257.54484311 -.00000062  00000-0 -99788-5 0  9991
2 12223  99.1653 291.3249 0040057 221.8882 137.9218 14.04127245335420

Track DELTA 1 DEB in real time with AllMySat

Download on the App Store